Etusivu
METAR-TAF:

METAR-TAF

Lentoasemat :

Mariental, Namibia

Leveyspiiri: 24-36-20S, Pituuspiiri: 17-55-30E, korkeus merenpinnasta: 1113 m

Tämänhetkinen sää

Tämä raportti tehtiin 32 minuuttia sitten, kello 07.00 UTC
tyyntä
Lämpötila 16°C
Kosteus 34%
Ilmanpaine 1027 hPa

METAR: FYML 260700Z AUTO 00000KT //// // ////// 16/M00 Q1027

Aika: 08:32 (07:32 UTC)


TAF: puuttuu

Säähavainnot ja -ennusteet yli 4000 lentoasemalta (METAR- ja TAF-raportit).

Käytössä olevat sääasemat on merkitty karttaan keltaisilla ja punaisilla pisteillä.

Aseta hiiri pisteen päälle nähdäksesi sääaseman nimen.

Klikkaa sitten nähdäksesi säähavainnot ja -ennusteet.

Kartan vaihtaminen: klikkaa mustalla rastilla varustettuja vihreitä pisteitä, niin voit zoomata sisään; viivalla varustettua vihreää pistettä, niin voit zoomata ulos tai vihreitä nuolia, niin pääset viereisille kartoille.


METAR-TAF: